Regional Weather Roundup
Issued by NWS

Home | Current Version | Previous Version | Text Only | Print | Product List | Glossary Off
Versions: 1 2 3 4 5 6 7 8 9 10 11 12 13 14 15 16 17 18 19 20 21 22 23 24 25 26 27 28 29 30 31 32 33 34 35 36 37 38 39 40 41 42 43 44 45 46 47 48 49 50

530
ASUS44 KLIX 220505
RWRLA
LOUISIANA WEATHER ROUNDUP
NATIONAL WEATHER SERVICE NEW ORLEANS LA
1100 PM CST FRI NOV 21 2014

NOTE: "FAIR" INDICATES FEW OR NO CLOUDS BELOW 12,000 FEET WITH NO
      SIGNIFICANT WEATHER AND/OR OBSTRUCTIONS TO VISIBILITY.
      SKY/WX - SKY CONDITION AND SIGNIFICANT WEATHER.
      TMP - AIR TEMPERATURE.    DP   - DEWPOINT TEMPERATURE.
      RH  - RELATIVE HUMIDITY.  PRES - PRESSURE.
      HX  - HEAT INDEX.         WCI  - WIND CHILL INDEX.

*  THESE STATIONS ARE NOT NWS OR FAA STATIONS AND ARE NOT UNDER
   NWS QUALITY CONTROL.

LAZ040-048-061>063-065-066-069-220600-
SOUTHEAST LOUISIANA

CITY           SKY/WX    TMP DP  RH WIND       PRES   REMARKS
N.O. AUDUBON     N/A     59  50  71 MISG        N/A
N.O. INTL ARPT CLEAR     59  49  69 E7        30.26S
N.O. LAKEFRONT CLEAR     57  52  83 E8        30.27S
N.O. DOWNTOWN* FAIR      63  46  55 E5        30.27S
SLIDELL        CLEAR     47  44  90 CALM      30.27S
BATON ROUGE    CLOUDY    57  51  80 E6        30.27R
BOOTHVILLE     CLEAR     62  56  80 E8        30.25S
BELLE CHASSE   PTCLDY    57  49  74 E7        30.26R
BOGALUSA*        N/A     45  41  87 CALM      30.30F
NEW ROADS*     FAIR      57  51  81 E3        30.27S
GONZALES*      FAIR      52  52 100 CALM      30.26S
HAMMOND*       CLEAR     55  50  82 E3        30.29F
HOUMA*         CLEAR     54  51  90 NE7       30.25S
PORT FOURCHON* CLEAR     64  57  77 E8        30.26S

$$

LAZ041-044-053-054-220600-
SOUTHWEST LOUISIANA

CITY           SKY/WX    TMP DP  RH WIND       PRES   REMARKS
LAKE CHARLES   MOCLDY    61  51  70 E9        30.21R
LAFAYETTE      CLEAR     58  51  78 E5        30.25S
PATTERSON      CLEAR     54  48  82 E6        30.28R
SALT POINT       N/A     57  50  77 VRB3      30.24R
NEW IBERIA     PTCLDY    57  51  80 E8        30.26R
CHENAULT AIRPK CLOUDY    60  51  72 E10       30.22S

$$

LAZ027-028-220600-
CENTRAL LOUISIANA

CITY           SKY/WX    TMP DP  RH WIND       PRES   REMARKS
FORT POLK      NOT AVBL
ALEXANDRIA INT CLOUDY    61  52  72 SE12      30.23F
ALEXANDRIA     CLOUDY    60  51  72 SE6       30.26S

$$

LAZ001-002-220600-
NORTHWEST LOUISIANA

CITY           SKY/WX    TMP DP  RH WIND       PRES   REMARKS
SHREVEPORT     CLOUDY    56  52  86 S3        30.21R
BARKSDALE AFB  NOT AVBL
DTN SHREVEPORT CLOUDY    55  50  83 E3        30.21R

$$

LAZ014-016-220600-
NORTHEAST LOUISIANA

CITY           SKY/WX    TMP DP  RH WIND       PRES   REMARKS
MONROE         CLOUDY    61  49  64 S9        30.27S
TALLULAH       MOCLDY    54  47  77 SE5       30.28F

$$




USA.gov is the U.S. government's official web portal to all federal, state and local government web resources and services.